Вернуться в каталог

ONEWEB-0286

АктивенСвязьPO
NORAD 49076·PAYLOAD·🇬🇧 United Kingdom

Запущен Aug 21, 2021 с Baikonur Cosmodrome

Loading…

Ближайшие Пролёты (ближайшие 24 часа)

TLE

СвежийSource: CelesTrak SupGP

Эпоха: Sep 14, 2026, 18:52 UTC

1 49076C 21075B   26257.78630048 -.00002079  00000+0 -57874-2 0  2578
2 49076  87.8973 332.8855 0002001 107.0958 313.5611 13.12442245    16

Отслеживайте ONEWEB-0286 в реальном времени с AllMySat

Download on the App Store